Regional Weather Roundup
Issued by NWS Cleveland, OH

Home | Current Version | Previous Version | Graphics & Text | Print | Product List | Glossary On
Versions: 1 2 3 4 5 6 7 8 9 10 11 12 13 14 15 16 17 18 19 20 21 22 23 24 25 26 27 28 29 30 31 32 33 34 35 36 37 38 39 40 41 42 43 44 45 46 47 48 49 50
000
ASUS41 KCLE 222110
RWRCLE
OHIO REGIONAL WEATHER ROUNDUP
NATIONAL WEATHER SERVICE WILMINGTON, OH
500 PM EDT TUE APR 22 2014

NOTE: "FAIR" INDICATES FEW OR NO CLOUDS BELOW 12,000 FEET WITH NO
SIGNIFICANT WEATHER AND/OR OBSTRUCTIONS TO VISIBILITY.

OHZ001>008-015>018-024>027-034-035-043-044-222200-
   NORTHWEST OHIO

CITY           SKY/WX    TMP DP  RH WIND       PRES   REMARKS
DEFIANCE       MOSUNNY   57  34  41 NW16G30   29.84R
FINDLAY        SUNNY     59  33  37 NW23G30   29.79R
TOLEDO EXPRESS PTSUNNY   56  32  40 NW21G32   29.80R
TOLEDO METCALF MOSUNNY   57  32  38 NW22G31   29.80R
LIMA           SUNNY     59  34  39 NW23G31   29.81S
$$

OHZ009>014-019>023-028>033-038-089-222200-
   NORTHEAST OHIO

CITY           SKY/WX    TMP DP  RH WIND       PRES   REMARKS
CLE-HOPKINS    MOSUNNY   57  35  43 NW24G31   29.78R
CLE-LAKEFRONT  MOSUNNY   48  43  82 NW3       29.75R
CUY CO. ARPT   PTSUNNY   50  45  81 NW15      29.76S
LORAIN-ELYRIA  SUNNY     57  35  43 N20       29.77R
ASHTABULA      CLOUDY    47  38  71 NW9       29.75R
AKRON-CANTON   PTSUNNY   58  43  57 N14       29.72S
WOOSTER        MOSUNNY   57  40  52 N21       29.74R
MANSFIELD      MOSUNNY   61  35  37 NW16G29   29.74S
YOUNGSTOWN     CLOUDY    48  41  76 NW13G22   29.73R
$$

OHZ042-051>053-060>062-070>072-077>081-222200-
  SOUTHWEST OHIO

CITY           SKY/WX    TMP DP  RH WIND       PRES   REMARKS
CINC-COVINGTON MOSUNNY   66  32  28 W17G26    29.83S
CINC-LUNKEN    SUNNY     66  32  28 N16G24    29.83R
HAMILTON       SUNNY     66  38  35 NW14G28   29.84S
DAYTON         SUNNY     63  34  33 NW18G26   29.83S
WRIGHT-PAT AFB SUNNY     62  33  33 W20G28    29.81S
DAYTON GENERAL SUNNY     63  35  35 NW15G22   29.82R
WILMINGTON     SUNNY     65  31  28 NW17G30   29.79S
$$

OHZ036-037-039>041-045>050-054>059-063>069-073>076-082>088-222200-
  CENTRAL AND SOUTHEAST OHIO

CITY           SKY/WX    TMP DP  RH WIND       PRES   REMARKS
COLUMBUS       MOSUNNY   68  32  26 NW20G26   29.75R
OSU AIRPORT    SUNNY     64  33  31 NW17G30   29.76R
BOLTON FIELD   SUNNY     64  34  32 NW21G29   29.77R
RICKENBACK AFB SUNNY     69  24  18 NW23      29.75S
NEWARK         SUNNY     66  32  28 NW21G31   29.73R
MARION         SUNNY     61  34  36 NW22G30   29.78R
LANCASTER      SUNNY     67  32  27 NW20G28   29.75S
ZANESVILLE     SUNNY     68  37  32 W18G28    29.70R
NEW PHILLY     MOSUNNY   62  46  55 N17G25    29.69R
$$



USA.gov is the U.S. government's official web portal to all federal, state and local government web resources and services.